QPF
0.00 0.00 0.00 0.00 0.00 0.00 0.00 0.00 0.00 0.00 0.00 0.00 0.00 0.00 0.00 0.00 0.00 0.00 0.00 0.00 0.00 0.00 0.01 0.02 0.02 0.01 0.01 0.01 0.02 0.02 0.02 0.02 0.03 0.03 0.02 0.02 0.02 0.01 0.01 0.01 0.01 0.02 0.02 0.02 0.01 0.01 0.01 0.01 0.00
0.00 0.00 0.00 0.00 0.00 0.00 0.00 0.00 0.00 0.00 0.00 0.00 0.00 0.00 0.00 0.00 0.00 0.00 0.00 0.00 0.00 0.01 0.01 0.02 0.03 0.03 0.02 0.02 0.03 0.03 0.02 0.02 0.03 0.03 0.03 0.02 0.02 0.01 0.01 0.02 0.02 0.01 0.02 0.02 0.01 0.01 0.01 0.00 0.00
0.00 0.00 0.00 0.00 0.00 0.00 0.00 0.00 0.00 0.00 0.00 0.00 0.00 0.00 0.00 0.00 0.00 0.00 0.00 0.00 0.00 0.01 0.02 0.04 0.05 0.06 0.04 0.04 0.04 0.04 0.04 0.04 0.04 0.04 0.04 0.03 0.03 0.02 0.02 0.02 0.02 0.02 0.02 0.02 0.01 0.01 0.00 0.00 0.00
0.00 0.00 0.00 0.00 0.00 0.00 0.00 0.00 0.00 0.00 0.00 0.00 0.00 0.00 0.00 0.00 0.00 0.00 0.00 0.00 0.01 0.02 0.03 0.04 0.07 0.09 0.09 0.07 0.05 0.05 0.05 0.04 0.04 0.05 0.05 0.04 0.04 0.04 0.03 0.03 0.02 0.02 0.02 0.02 0.02 0.01 0.00 0.00 0.00
0.00 0.00 0.00 0.00 0.00 0.00 0.00 0.00 0.00 0.00 0.00 0.00 0.00 0.00 0.00 0.00 0.00 0.00 0.00 0.00 0.01 0.02 0.03 0.04 0.07 0.09 0.11 0.10 0.08 0.07 0.06 0.06 0.05 0.06 0.06 0.05 0.04 0.05 0.04 0.03 0.02 0.02 0.02 0.02 0.02 0.01 0.00 0.00 0.00
0.00 0.00 0.00 0.00 0.00 0.00 0.00 0.00 0.00 0.00 0.00 0.00 0.00 0.00 0.00 0.00 0.00 0.00 0.00 0.01 0.01 0.02 0.03 0.05 0.07 0.10 0.12 0.13 0.13 0.12 0.11 0.08 0.07 0.08 0.08 0.07 0.07 0.07 0.05 0.04 0.03 0.03 0.02 0.02 0.02 0.01 0.00 0.00 0.00
0.00 0.00 0.00 0.00 0.00 0.00 0.00 0.00 0.00 0.00 0.00 0.00 0.00 0.00 0.00 0.00 0.00 0.00 0.00 0.01 0.02 0.03 0.04 0.05 0.07 0.08 0.10 0.11 0.12 0.12 0.12 0.12 0.11 0.10 0.10 0.10 0.10 0.10 0.08 0.05 0.04 0.04 0.03 0.03 0.02 0.01 0.01 0.00 0.00
0.00 0.00 0.00 0.00 0.00 0.00 0.00 0.00 0.00 0.00 0.00 0.00 0.00 0.00 0.00 0.00 0.00 0.00 0.00 0.01 0.02 0.03 0.04 0.05 0.06 0.08 0.10 0.12 0.11 0.12 0.13 0.13 0.13 0.11 0.09 0.09 0.11 0.12 0.11 0.06 0.05 0.04 0.04 0.03 0.03 0.01 0.01 0.00 0.00
0.00 0.00 0.00 0.00 0.00 0.00 0.00 0.00 0.00 0.00 0.00 0.00 0.00 0.00 0.00 0.00 0.00 0.00 0.00 0.00 0.01 0.01 0.03 0.04 0.06 0.06 0.07 0.08 0.09 0.10 0.11 0.10 0.10 0.10 0.08 0.08 0.09 0.09 0.09 0.07 0.05 0.06 0.05 0.04 0.02 0.02 0.01 0.00 0.00
0.00 0.00 0.00 0.00 0.00 0.00 0.00 0.00 0.00 0.00 0.00 0.00 0.00 0.00 0.00 0.00 0.00 0.00 0.00 0.00 0.00 0.01 0.02 0.03 0.04 0.05 0.06 0.06 0.06 0.08 0.09 0.10 0.10 0.10 0.10 0.09 0.09 0.09 0.07 0.08 0.06 0.06 0.05 0.04 0.03 0.02 0.02 0.00 0.00
0.00 0.00 0.00 0.00 0.00 0.00 0.00 0.00 0.00 0.00 0.00 0.00 0.00 0.00 0.00 0.00 0.00 0.00 0.00 0.00 0.00 0.00 0.01 0.02 0.03 0.03 0.04 0.05 0.05 0.05 0.07 0.09 0.09 0.08 0.09 0.09 0.10 0.11 0.10 0.09 0.08 0.07 0.05 0.04 0.03 0.02 0.01 0.00 0.00
0.00 0.00 0.00 0.00 0.00 0.00 0.00 0.00 0.00 0.00 0.00 0.00 0.00 0.00 0.00 0.00 0.00 0.00 0.00 0.00 0.00 0.00 0.00 0.01 0.03 0.04 0.04 0.05 0.05 0.05 0.04 0.06 0.07 0.07 0.07 0.08 0.09 0.09 0.08 0.08 0.07 0.08 0.06 0.04 0.03 0.02 0.01 0.01 0.00
0.00 0.00 0.00 0.00 0.00 0.00 0.00 0.00 0.00 0.00 0.00 0.00 0.00 0.00 0.00 0.00 0.00 0.00 0.00 0.00 0.00 0.00 0.00 0.00 0.02 0.04 0.05 0.05 0.05 0.04 0.04 0.04 0.05 0.06 0.08 0.08 0.08 0.08 0.08 0.08 0.08 0.08 0.07 0.05 0.04 0.03 0.01 0.01 0.00
0.00 0.00 0.00 0.00 0.00 0.00 0.00 0.00 0.00 0.00 0.00 0.00 0.00 0.00 0.00 0.00 0.00 0.00 0.00 0.00 0.00 0.00 0.00 0.00 0.01 0.02 0.04 0.06 0.06 0.04 0.03 0.04 0.06 0.07 0.07 0.09 0.09 0.08 0.08 0.09 0.08 0.07 0.06 0.06 0.04 0.03 0.02 0.01 0.00
0.00 0.00 0.00 0.00 0.00 0.00 0.00 0.00 0.00 0.00 0.00 0.00 0.00 0.00 0.00 0.00 0.00 0.00 0.00 0.00 0.00 0.00 0.00 0.00 0.01 0.01 0.02 0.06 0.09 0.08 0.07 0.06 0.05 0.06 0.08 0.09 0.10 0.10 0.10 0.11 0.10 0.07 0.06 0.06 0.05 0.06 0.05 0.03 0.02
0.00 0.00 0.00 0.00 0.00 0.00 0.00 0.00 0.00 0.00 0.00 0.00 0.00 0.01 0.01 0.00 0.00 0.00 0.00 0.00 0.00 0.00 0.00 0.01 0.02 0.03 0.03 0.04 0.08 0.11 0.11 0.09 0.07 0.06 0.08 0.10 0.11 0.12 0.13 0.12 0.11 0.09 0.08 0.07 0.05 0.04 0.05 0.04 0.03
0.00 0.00 0.00 0.00 0.00 0.00 0.00 0.00 0.00 0.00 0.00 0.00 0.01 0.01 0.01 0.01 0.01 0.00 0.01 0.01 0.00 0.00 0.01 0.01 0.02 0.03 0.04 0.03 0.05 0.09 0.13 0.11 0.09 0.08 0.08 0.10 0.11 0.12 0.13 0.11 0.11 0.11 0.10 0.08 0.06 0.04 0.03 0.03 0.02
0.00 0.00 0.00 0.00 0.00 0.00 0.00 0.00 0.00 0.00 0.00 0.00 0.01 0.01 0.01 0.01 0.02 0.01 0.01 0.01 0.01 0.01 0.01 0.01 0.01 0.02 0.03 0.03 0.03 0.06 0.10 0.12 0.11 0.09 0.08 0.08 0.09 0.11 0.14 0.13 0.12 0.13 0.13 0.11 0.09 0.06 0.04 0.03 0.02
0.00 0.00 0.00 0.00 0.00 0.00 0.00 0.00 0.00 0.00 0.00 0.00 0.00 0.01 0.01 0.01 0.03 0.03 0.03 0.03 0.04 0.03 0.03 0.02 0.02 0.02 0.03 0.03 0.02 0.04 0.06 0.10 0.12 0.12 0.10 0.10 0.10 0.10 0.11 0.14 0.15 0.15 0.13 0.11 0.10 0.11 0.09 0.05 0.03
0.00 0.00 0.00 0.00 0.00 0.00 0.00 0.00 0.00 0.00 0.01 0.01 0.01 0.01 0.02 0.02 0.03 0.05 0.05 0.04 0.04 0.05 0.04 0.03 0.03 0.03 0.03 0.03 0.02 0.03 0.04 0.07 0.10 0.10 0.10 0.11 0.13 0.13 0.12 0.13 0.14 0.15 0.16 0.15 0.13 0.12 0.12 0.10 0.07
0.00 0.00 0.00 0.00 0.00 0.00 0.00 0.00 0.00 0.01 0.01 0.02 0.02 0.02 0.03 0.03 0.03 0.03 0.04 0.05 0.04 0.04 0.05 0.04 0.04 0.04 0.03 0.03 0.03 0.04 0.04 0.06 0.07 0.09 0.08 0.08 0.10 0.13 0.12 0.14 0.16 0.16 0.16 0.15 0.14 0.14 0.13 0.11 0.08
0.00 0.00 0.00 0.00 0.00 0.00 0.00 0.01 0.01 0.01 0.02 0.03 0.04 0.03 0.03 0.04 0.04 0.03 0.03 0.03 0.04 0.05 0.04 0.04 0.04 0.04 0.03 0.04 0.04 0.05 0.06 0.06 0.06 0.07 0.08 0.09 0.10 0.12 0.13 0.12 0.15 0.18 0.18 0.15 0.13 0.12 0.13 0.13 0.12
0.00 0.00 0.00 0.00 0.00 0.00 0.00 0.01 0.01 0.01 0.02 0.03 0.06 0.06 0.06 0.07 0.06 0.04 0.04 0.04 0.05 0.05 0.05 0.05 0.05 0.05 0.05 0.05 0.05 0.06 0.07 0.08 0.08 0.09 0.11 0.12 0.13 0.14 0.15 0.15 0.15 0.16 0.17 0.18 0.18 0.17 0.14 0.13 0.12
0.01 0.00 0.00 0.00 0.00 0.00 0.00 0.01 0.01 0.02 0.03 0.04 0.04 0.06 0.07 0.09 0.11 0.09 0.09 0.08 0.08 0.09 0.10 0.10 0.10 0.09 0.07 0.05 0.07 0.07 0.07 0.06 0.08 0.08 0.08 0.10 0.13 0.15 0.17 0.17 0.17 0.16 0.16 0.16 0.17 0.18 0.17 0.16 0.15
0.01 0.01 0.01 0.01 0.00 0.00 0.00 0.01 0.01 0.03 0.05 0.04 0.04 0.06 0.07 0.08 0.09 0.11 0.12 0.10 0.10 0.12 0.14 0.18 0.18 0.17 0.14 0.10 0.11 0.12 0.11 0.08 0.08 0.09 0.09 0.09 0.10 0.11 0.13 0.16 0.17 0.16 0.14 0.14 0.16 0.19 0.19 0.17 0.15
0.01 0.01 0.01 0.01 0.00 0.00 0.00 0.01 0.02 0.03 0.03 0.03 0.03 0.04 0.06 0.06 0.05 0.07 0.09 0.08 0.07 0.09 0.10 0.11 0.12 0.12 0.11 0.10 0.10 0.10 0.11 0.11 0.09 0.09 0.09 0.09 0.10 0.08 0.08 0.10 0.11 0.12 0.11 0.12 0.13 0.14 0.16 0.17 0.16
0.01 0.02 0.01 0.01 0.01 0.01 0.01 0.01 0.02 0.02 0.02 0.03 0.03 0.03 0.03 0.04 0.04 0.05 0.07 0.08 0.09 0.10 0.09 0.08 0.07 0.07 0.08 0.09 0.08 0.08 0.10 0.10 0.09 0.09 0.09 0.08 0.08 0.08 0.07 0.06 0.07 0.08 0.10 0.10 0.11 0.13 0.14 0.15 0.16
0.01 0.01 0.01 0.02 0.01 0.01 0.01 0.02 0.03 0.03 0.02 0.03 0.03 0.03 0.03 0.03 0.03 0.03 0.04 0.06 0.07 0.09 0.09 0.10 0.09 0.08 0.08 0.09 0.10 0.09 0.10 0.12 0.11 0.10 0.09 0.08 0.07 0.07 0.07 0.06 0.06 0.06 0.07 0.09 0.11 0.12 0.12 0.13 0.14
0.01 0.01 0.01 0.01 0.01 0.01 0.01 0.02 0.03 0.03 0.03 0.03 0.03 0.04 0.04 0.04 0.03 0.04 0.05 0.06 0.06 0.07 0.08 0.09 0.10 0.10 0.10 0.11 0.12 0.11 0.09 0.09 0.10 0.09 0.09 0.10 0.09 0.08 0.08 0.08 0.08 0.07 0.08 0.08 0.09 0.10 0.11 0.11 0.11
0.00 0.00 0.00 0.01 0.01 0.01 0.01 0.02 0.02 0.02 0.02 0.03 0.02 0.03 0.04 0.04 0.05 0.06 0.06 0.07 0.06 0.05 0.05 0.07 0.07 0.09 0.11 0.12 0.12 0.11 0.09 0.08 0.08 0.08 0.08 0.08 0.08 0.09 0.10 0.10 0.10 0.10 0.09 0.09 0.09 0.10 0.11 0.12 0.12
MSLP
1015.43 1015.40 1015.47 1015.62 1015.80 1015.99 1016.14 1016.24 1016.28 1016.28 1016.26 1016.23 1016.20 1016.15 1016.07 1015.91 1015.66 1015.30 1014.86 1014.38 1013.92 1013.55 1013.31 1013.24 1013.32 1013.53 1013.80 1014.08 1014.31 1014.47 1014.56 1014.61 1014.64 1014.70 1014.81 1014.98 1015.18 1015.39 1015.58 1015.73 1015.83 1015.90 1015.96 1016.03 1016.15 1016.31 1016.50 1016.69 1016.86
1015.56 1015.55 1015.64 1015.80 1016.00 1016.18 1016.32 1016.40 1016.42 1016.40 1016.35 1016.30 1016.25 1016.20 1016.12 1015.97 1015.73 1015.39 1014.95 1014.47 1014.00 1013.61 1013.36 1013.27 1013.36 1013.58 1013.87 1014.19 1014.46 1014.66 1014.79 1014.86 1014.90 1014.95 1015.03 1015.15 1015.30 1015.46 1015.60 1015.72 1015.80 1015.87 1015.94 1016.05 1016.21 1016.41 1016.65 1016.89 1017.09
1015.67 1015.69 1015.80 1015.97 1016.17 1016.35 1016.49 1016.56 1016.57 1016.52 1016.46 1016.39 1016.33 1016.27 1016.18 1016.04 1015.80 1015.47 1015.04 1014.56 1014.09 1013.69 1013.42 1013.32 1013.40 1013.62 1013.93 1014.27 1014.58 1014.82 1014.98 1015.07 1015.12 1015.16 1015.22 1015.30 1015.41 1015.53 1015.63 1015.72 1015.80 1015.87 1015.96 1016.10 1016.30 1016.55 1016.83 1017.10 1017.33
1015.78 1015.84 1015.97 1016.16 1016.36 1016.55 1016.69 1016.75 1016.75 1016.69 1016.61 1016.53 1016.46 1016.39 1016.29 1016.15 1015.92 1015.59 1015.18 1014.71 1014.24 1013.84 1013.56 1013.45 1013.51 1013.72 1014.02 1014.36 1014.68 1014.93 1015.11 1015.22 1015.28 1015.32 1015.36 1015.43 1015.51 1015.60 1015.69 1015.76 1015.84 1015.92 1016.04 1016.22 1016.45 1016.73 1017.04 1017.33 1017.56
1015.94 1016.04 1016.21 1016.42 1016.64 1016.83 1016.96 1017.01 1017.00 1016.93 1016.84 1016.74 1016.66 1016.58 1016.48 1016.34 1016.12 1015.80 1015.40 1014.95 1014.50 1014.10 1013.81 1013.68 1013.71 1013.88 1014.15 1014.46 1014.76 1015.00 1015.17 1015.28 1015.35 1015.39 1015.44 1015.50 1015.57 1015.66 1015.75 1015.84 1015.93 1016.03 1016.18 1016.38 1016.63 1016.93 1017.25 1017.55 1017.79
1016.20 1016.36 1016.56 1016.80 1017.02 1017.21 1017.32 1017.36 1017.33 1017.25 1017.14 1017.03 1016.93 1016.84 1016.74 1016.60 1016.39 1016.10 1015.73 1015.30 1014.87 1014.48 1014.19 1014.03 1014.01 1014.12 1014.33 1014.57 1014.81 1015.01 1015.16 1015.25 1015.31 1015.36 1015.41 1015.48 1015.58 1015.68 1015.79 1015.90 1016.02 1016.16 1016.33 1016.55 1016.81 1017.12 1017.44 1017.73 1017.96
1016.57 1016.79 1017.04 1017.30 1017.52 1017.70 1017.79 1017.81 1017.75 1017.64 1017.50 1017.37 1017.25 1017.15 1017.05 1016.91 1016.72 1016.46 1016.12 1015.73 1015.32 1014.94 1014.63 1014.44 1014.36 1014.40 1014.51 1014.67 1014.82 1014.95 1015.05 1015.11 1015.16 1015.21 1015.27 1015.37 1015.49 1015.63 1015.77 1015.91 1016.07 1016.23 1016.43 1016.66 1016.93 1017.24 1017.54 1017.82 1018.04
1017.05 1017.34 1017.62 1017.89 1018.12 1018.27 1018.33 1018.30 1018.21 1018.06 1017.89 1017.73 1017.59 1017.47 1017.36 1017.23 1017.06 1016.82 1016.51 1016.15 1015.77 1015.40 1015.08 1014.84 1014.70 1014.65 1014.66 1014.71 1014.77 1014.82 1014.85 1014.88 1014.90 1014.95 1015.03 1015.14 1015.29 1015.46 1015.64 1015.83 1016.01 1016.20 1016.42 1016.66 1016.94 1017.23 1017.52 1017.79 1017.99
1017.59 1017.93 1018.25 1018.52 1018.73 1018.85 1018.87 1018.80 1018.66 1018.46 1018.26 1018.06 1017.89 1017.75 1017.63 1017.49 1017.33 1017.11 1016.83 1016.50 1016.14 1015.77 1015.44 1015.17 1014.96 1014.83 1014.74 1014.69 1014.65 1014.62 1014.58 1014.56 1014.56 1014.60 1014.69 1014.82 1014.99 1015.19 1015.40 1015.61 1015.82 1016.04 1016.27 1016.52 1016.79 1017.08 1017.36 1017.62 1017.82
1018.13 1018.50 1018.84 1019.12 1019.30 1019.39 1019.36 1019.24 1019.05 1018.81 1018.56 1018.33 1018.12 1017.95 1017.81 1017.66 1017.50 1017.29 1017.03 1016.71 1016.37 1016.01 1015.67 1015.36 1015.11 1014.90 1014.73 1014.59 1014.47 1014.36 1014.27 1014.21 1014.19 1014.22 1014.30 1014.44 1014.62 1014.82 1015.05 1015.28 1015.51 1015.74 1015.98 1016.24 1016.51 1016.80 1017.07 1017.32 1017.52
1018.58 1018.98 1019.33 1019.60 1019.76 1019.81 1019.74 1019.58 1019.35 1019.07 1018.78 1018.50 1018.26 1018.05 1017.88 1017.71 1017.53 1017.32 1017.06 1016.76 1016.43 1016.08 1015.74 1015.41 1015.12 1014.86 1014.63 1014.43 1014.25 1014.09 1013.96 1013.87 1013.82 1013.84 1013.91 1014.04 1014.21 1014.41 1014.64 1014.87 1015.10 1015.35 1015.60 1015.87 1016.14 1016.43 1016.70 1016.95 1017.16
1018.91 1019.32 1019.67 1019.92 1020.06 1020.08 1019.99 1019.79 1019.53 1019.21 1018.89 1018.58 1018.29 1018.05 1017.83 1017.63 1017.42 1017.19 1016.93 1016.64 1016.32 1015.98 1015.65 1015.32 1015.01 1014.73 1014.47 1014.24 1014.03 1013.84 1013.69 1013.58 1013.51 1013.51 1013.56 1013.67 1013.82 1014.01 1014.22 1014.44 1014.68 1014.93 1015.19 1015.47 1015.75 1016.04 1016.31 1016.56 1016.77
1019.12 1019.52 1019.85 1020.08 1020.20 1020.20 1020.09 1019.88 1019.60 1019.26 1018.91 1018.57 1018.24 1017.95 1017.69 1017.44 1017.20 1016.94 1016.67 1016.38 1016.07 1015.75 1015.43 1015.12 1014.82 1014.54 1014.29 1014.05 1013.83 1013.64 1013.48 1013.35 1013.28 1013.26 1013.29 1013.37 1013.50 1013.66 1013.85 1014.07 1014.30 1014.55 1014.83 1015.11 1015.41 1015.70 1015.98 1016.21 1016.41
1019.23 1019.60 1019.90 1020.11 1020.21 1020.20 1020.08 1019.87 1019.58 1019.24 1018.87 1018.50 1018.13 1017.79 1017.48 1017.18 1016.89 1016.60 1016.32 1016.03 1015.73 1015.43 1015.13 1014.85 1014.58 1014.32 1014.08 1013.86 1013.65 1013.47 1013.32 1013.20 1013.12 1013.08 1013.10 1013.16 1013.26 1013.40 1013.58 1013.78 1014.02 1014.28 1014.56 1014.86 1015.17 1015.46 1015.73 1015.96 1016.13
1019.30 1019.63 1019.90 1020.08 1020.16 1020.14 1020.02 1019.81 1019.52 1019.18 1018.80 1018.40 1018.00 1017.60 1017.23 1016.88 1016.54 1016.22 1015.92 1015.62 1015.33 1015.05 1014.78 1014.53 1014.29 1014.06 1013.85 1013.65 1013.47 1013.31 1013.17 1013.06 1012.99 1012.95 1012.96 1013.01 1013.10 1013.22 1013.39 1013.59 1013.83 1014.10 1014.40 1014.72 1015.03 1015.33 1015.59 1015.79 1015.93
1019.42 1019.70 1019.91 1020.05 1020.10 1020.07 1019.95 1019.74 1019.45 1019.11 1018.72 1018.29 1017.86 1017.42 1016.99 1016.59 1016.20 1015.85 1015.52 1015.21 1014.92 1014.66 1014.41 1014.18 1013.97 1013.77 1013.58 1013.40 1013.24 1013.10 1012.98 1012.89 1012.83 1012.80 1012.81 1012.86 1012.95 1013.08 1013.25 1013.46 1013.71 1014.00 1014.31 1014.64 1014.96 1015.25 1015.49 1015.67 1015.78
1019.63 1019.84 1019.99 1020.08 1020.09 1020.03 1019.90 1019.68 1019.40 1019.05 1018.64 1018.20 1017.74 1017.26 1016.79 1016.34 1015.91 1015.52 1015.16 1014.84 1014.54 1014.28 1014.03 1013.81 1013.61 1013.42 1013.24 1013.08 1012.93 1012.81 1012.71 1012.63 1012.59 1012.58 1012.60 1012.66 1012.76 1012.91 1013.09 1013.32 1013.59 1013.89 1014.21 1014.55 1014.87 1015.16 1015.38 1015.54 1015.61
1019.96 1020.08 1020.16 1020.18 1020.14 1020.04 1019.88 1019.65 1019.35 1019.00 1018.59 1018.14 1017.65 1017.16 1016.66 1016.18 1015.72 1015.30 1014.91 1014.56 1014.24 1013.95 1013.68 1013.44 1013.22 1013.02 1012.83 1012.67 1012.52 1012.41 1012.32 1012.26 1012.24 1012.25 1012.29 1012.38 1012.50 1012.66 1012.86 1013.10 1013.39 1013.70 1014.03 1014.36 1014.68 1014.96 1015.17 1015.31 1015.36
1020.37 1020.41 1020.41 1020.35 1020.24 1020.09 1019.88 1019.62 1019.31 1018.95 1018.55 1018.10 1017.63 1017.13 1016.64 1016.15 1015.68 1015.24 1014.82 1014.43 1014.07 1013.73 1013.41 1013.12 1012.85 1012.61 1012.40 1012.21 1012.06 1011.94 1011.86 1011.81 1011.81 1011.84 1011.90 1012.00 1012.14 1012.31 1012.52 1012.77 1013.05 1013.36 1013.68 1014.00 1014.31 1014.57 1014.78 1014.91 1014.96
1020.81 1020.78 1020.69 1020.54 1020.36 1020.13 1019.88 1019.59 1019.26 1018.91 1018.52 1018.11 1017.67 1017.22 1016.76 1016.30 1015.84 1015.39 1014.95 1014.52 1014.10 1013.69 1013.30 1012.93 1012.59 1012.28 1012.02 1011.79 1011.62 1011.49 1011.41 1011.37 1011.37 1011.41 1011.49 1011.59 1011.73 1011.90 1012.09 1012.32 1012.58 1012.86 1013.15 1013.44 1013.72 1013.97 1014.17 1014.30 1014.37
1021.23 1021.12 1020.94 1020.72 1020.45 1020.16 1019.84 1019.52 1019.19 1018.85 1018.51 1018.16 1017.80 1017.43 1017.05 1016.65 1016.24 1015.81 1015.36 1014.89 1014.41 1013.92 1013.43 1012.97 1012.53 1012.15 1011.82 1011.55 1011.34 1011.19 1011.10 1011.06 1011.06 1011.09 1011.15 1011.24 1011.34 1011.47 1011.63 1011.80 1012.01 1012.23 1012.46 1012.70 1012.93 1013.15 1013.34 1013.48 1013.57
1021.55 1021.38 1021.13 1020.82 1020.48 1020.12 1019.77 1019.42 1019.10 1018.80 1018.52 1018.27 1018.03 1017.78 1017.52 1017.23 1016.90 1016.52 1016.08 1015.58 1015.04 1014.46 1013.88 1013.31 1012.78 1012.31 1011.91 1011.59 1011.35 1011.19 1011.08 1011.02 1011.00 1011.00 1011.02 1011.05 1011.09 1011.15 1011.22 1011.30 1011.41 1011.54 1011.68 1011.84 1012.01 1012.18 1012.35 1012.49 1012.60
1021.74 1021.52 1021.22 1020.85 1020.45 1020.04 1019.65 1019.29 1018.99 1018.75 1018.57 1018.44 1018.35 1018.26 1018.16 1018.01 1017.79 1017.48 1017.07 1016.56 1015.97 1015.33 1014.65 1013.99 1013.37 1012.83 1012.37 1012.01 1011.74 1011.55 1011.43 1011.34 1011.28 1011.23 1011.18 1011.13 1011.07 1011.01 1010.96 1010.92 1010.90 1010.90 1010.93 1010.99 1011.07 1011.17 1011.29 1011.42 1011.54
1021.79 1021.55 1021.21 1020.81 1020.37 1019.92 1019.51 1019.16 1018.90 1018.73 1018.66 1018.67 1018.74 1018.83 1018.90 1018.92 1018.83 1018.62 1018.26 1017.77 1017.16 1016.46 1015.72 1014.98 1014.30 1013.70 1013.20 1012.81 1012.52 1012.31 1012.16 1012.04 1011.93 1011.81 1011.67 1011.50 1011.32 1011.13 1010.93 1010.75 1010.58 1010.44 1010.33 1010.25 1010.22 1010.23 1010.28 1010.37 1010.48
1021.71 1021.47 1021.12 1020.70 1020.25 1019.79 1019.38 1019.05 1018.82 1018.73 1018.77 1018.92 1019.15 1019.42 1019.67 1019.85 1019.91 1019.80 1019.52 1019.06 1018.45 1017.73 1016.96 1016.18 1015.46 1014.83 1014.32 1013.92 1013.62 1013.40 1013.23 1013.07 1012.90 1012.69 1012.45 1012.16 1011.85 1011.51 1011.16 1010.83 1010.51 1010.21 1009.96 1009.75 1009.60 1009.49 1009.45 1009.46 1009.52
1021.53 1021.30 1020.96 1020.55 1020.10 1019.65 1019.25 1018.95 1018.77 1018.75 1018.88 1019.15 1019.53 1019.95 1020.36 1020.69 1020.88 1020.88 1020.67 1020.26 1019.68 1018.98 1018.21 1017.44 1016.72 1016.09 1015.58 1015.19 1014.89 1014.67 1014.47 1014.28 1014.05 1013.76 1013.42 1013.03 1012.58 1012.12 1011.64 1011.16 1010.71 1010.28 1009.89 1009.55 1009.26 1009.04 1008.88 1008.79 1008.76
1021.26 1021.05 1020.75 1020.36 1019.93 1019.50 1019.13 1018.85 1018.71 1018.75 1018.95 1019.31 1019.79 1020.33 1020.86 1021.30 1021.60 1021.69 1021.57 1021.23 1020.70 1020.04 1019.31 1018.57 1017.88 1017.29 1016.81 1016.44 1016.16 1015.94 1015.73 1015.50 1015.22 1014.87 1014.45 1013.96 1013.42 1012.86 1012.28 1011.70 1011.15 1010.61 1010.12 1009.66 1009.26 1008.91 1008.63 1008.42 1008.28
1020.92 1020.74 1020.46 1020.11 1019.71 1019.31 1018.97 1018.72 1018.61 1018.68 1018.93 1019.34 1019.87 1020.48 1021.07 1021.60 1021.97 1022.14 1022.09 1021.82 1021.36 1020.77 1020.11 1019.44 1018.81 1018.28 1017.85 1017.52 1017.27 1017.05 1016.83 1016.58 1016.25 1015.85 1015.38 1014.84 1014.24 1013.63 1013.00 1012.37 1011.76 1011.16 1010.60 1010.06 1009.56 1009.11 1008.71 1008.37 1008.10
1020.49 1020.33 1020.07 1019.75 1019.39 1019.03 1018.71 1018.49 1018.40 1018.49 1018.75 1019.17 1019.72 1020.34 1020.96 1021.52 1021.93 1022.16 1022.17 1021.98 1021.60 1021.11 1020.53 1019.96 1019.42 1018.96 1018.60 1018.31 1018.08 1017.88 1017.65 1017.37 1017.03 1016.60 1016.10 1015.54 1014.94 1014.31 1013.68 1013.06 1012.45 1011.84 1011.25 1010.67 1010.11 1009.57 1009.08 1008.63 1008.24
1019.97 1019.80 1019.56 1019.26 1018.93 1018.60 1018.32 1018.12 1018.05 1018.14 1018.39 1018.80 1019.33 1019.94 1020.55 1021.10 1021.53 1021.79 1021.86 1021.75 1021.47 1021.07 1020.61 1020.15 1019.71 1019.34 1019.04 1018.80 1018.59 1018.39 1018.15 1017.86 1017.50 1017.06 1016.56 1016.01 1015.44 1014.85 1014.27 1013.69 1013.12 1012.54 1011.96 1011.37 1010.78 1010.20 1009.64 1009.11 1008.62
Thickness
5686 5691 5697 5698 5693 5693 5700 5704 5706 5705 5709 5716 5718 5720 5724 5727 5727 5725 5739 5746 5749 5753 5754 5753 5751 5750 5750 5749 5749 5748 5748 5747 5747 5746 5745 5745 5744 5744 5743 5743 5742 5741 5740 5739 5738 5737 5736 5734 5733
5680 5685 5688 5687 5684 5689 5696 5699 5697 5700 5704 5707 5711 5714 5717 5722 5727 5729 5734 5738 5743 5748 5750 5749 5747 5746 5745 5745 5744 5743 5743 5743 5742 5742 5741 5741 5740 5740 5739 5739 5738 5738 5737 5736 5735 5733 5732 5730 5729
5673 5677 5678 5676 5678 5690 5691 5688 5691 5692 5695 5698 5703 5708 5710 5712 5717 5721 5725 5731 5738 5742 5743 5744 5742 5741 5740 5740 5739 5739 5738 5738 5738 5738 5737 5737 5736 5736 5735 5735 5735 5734 5733 5732 5731 5729 5728 5726 5725
5666 5666 5666 5667 5673 5677 5678 5679 5679 5683 5687 5691 5694 5698 5702 5705 5708 5713 5719 5725 5730 5734 5736 5737 5735 5735 5735 5735 5734 5734 5734 5733 5733 5733 5732 5732 5732 5732 5731 5731 5730 5730 5729 5728 5726 5725 5723 5722 5721
5657 5658 5655 5659 5665 5666 5667 5668 5670 5674 5678 5682 5685 5688 5692 5698 5702 5706 5712 5717 5721 5725 5728 5730 5729 5729 5729 5729 5729 5729 5729 5728 5728 5728 5728 5728 5727 5727 5727 5726 5726 5725 5724 5723 5722 5720 5719 5718 5717
5645 5648 5651 5657 5657 5654 5657 5659 5662 5666 5670 5673 5675 5678 5684 5690 5692 5696 5703 5707 5712 5716 5719 5721 5722 5723 5723 5723 5724 5724 5724 5724 5724 5723 5723 5723 5723 5723 5722 5722 5721 5720 5719 5718 5717 5716 5715 5714 5713
5636 5639 5646 5649 5647 5646 5647 5650 5654 5658 5660 5664 5666 5668 5677 5681 5682 5687 5693 5698 5702 5706 5709 5712 5715 5716 5717 5717 5718 5719 5719 5719 5719 5719 5718 5718 5718 5718 5718 5717 5716 5715 5714 5714 5713 5712 5710 5709 5708
5628 5630 5631 5635 5637 5638 5638 5641 5643 5647 5651 5655 5658 5660 5666 5670 5674 5678 5683 5688 5692 5696 5700 5703 5706 5709 5711 5712 5712 5713 5713 5713 5713 5713 5713 5713 5713 5713 5713 5712 5711 5711 5710 5709 5708 5707 5706 5705 5704
5616 5618 5625 5626 5627 5628 5629 5631 5635 5638 5642 5645 5649 5652 5656 5660 5665 5668 5672 5677 5681 5686 5690 5693 5697 5700 5702 5705 5707 5707 5707 5707 5708 5708 5708 5708 5708 5709 5708 5708 5707 5706 5705 5704 5703 5702 5701 5699 5698
5605 5610 5614 5613 5616 5618 5618 5621 5624 5629 5632 5636 5641 5645 5648 5651 5654 5657 5661 5665 5670 5675 5679 5683 5687 5690 5693 5696 5699 5701 5702 5703 5703 5704 5704 5704 5705 5705 5705 5703 5702 5701 5699 5698 5697 5696 5695 5694 5695
5595 5599 5598 5599 5602 5605 5607 5610 5614 5616 5621 5627 5630 5635 5638 5640 5644 5647 5651 5656 5660 5665 5669 5673 5677 5681 5684 5687 5691 5694 5696 5697 5698 5699 5700 5700 5700 5700 5699 5698 5697 5695 5694 5693 5691 5690 5691 5692 5693
5583 5584 5586 5589 5589 5592 5596 5600 5603 5607 5613 5619 5621 5624 5627 5630 5634 5638 5642 5646 5651 5654 5659 5663 5666 5670 5674 5677 5681 5684 5687 5689 5691 5693 5694 5695 5695 5695 5695 5694 5694 5692 5691 5690 5689 5689 5689 5689 5688
5573 5573 5575 5578 5580 5583 5586 5589 5593 5599 5604 5608 5611 5614 5617 5621 5625 5630 5633 5637 5641 5645 5649 5653 5656 5660 5663 5667 5671 5675 5678 5681 5683 5685 5687 5688 5689 5690 5690 5690 5689 5688 5688 5687 5685 5685 5686 5685 5684
5563 5565 5567 5570 5573 5574 5577 5582 5584 5592 5595 5598 5601 5605 5609 5612 5616 5619 5623 5627 5631 5635 5638 5642 5645 5649 5653 5657 5661 5665 5669 5671 5674 5677 5679 5681 5682 5683 5684 5684 5684 5683 5683 5682 5681 5681 5681 5680 5679
5554 5558 5562 5564 5565 5567 5569 5577 5579 5583 5586 5589 5593 5597 5599 5602 5605 5608 5611 5615 5619 5624 5627 5630 5634 5638 5642 5646 5651 5655 5659 5662 5665 5668 5670 5672 5674 5675 5676 5677 5678 5678 5677 5676 5675 5675 5675 5675 5674
5548 5554 5560 5557 5558 5560 5562 5574 5575 5576 5577 5581 5585 5588 5590 5592 5594 5596 5600 5603 5607 5611 5615 5619 5622 5627 5630 5635 5639 5644 5648 5652 5655 5658 5661 5664 5666 5667 5668 5670 5671 5671 5670 5670 5669 5670 5668 5668 5668
5546 5552 5553 5551 5551 5553 5556 5564 5567 5568 5569 5572 5576 5578 5580 5583 5584 5586 5588 5591 5594 5599 5603 5607 5610 5614 5618 5622 5627 5632 5636 5641 5645 5648 5651 5655 5658 5659 5660 5662 5664 5664 5664 5663 5663 5662 5662 5662 5662
5543 5545 5544 5546 5546 5547 5551 5557 5560 5562 5561 5564 5567 5569 5570 5572 5574 5575 5577 5580 5582 5586 5591 5594 5598 5602 5606 5610 5615 5620 5624 5630 5633 5637 5641 5645 5648 5651 5653 5655 5656 5657 5656 5656 5657 5656 5656 5656 5656
5533 5535 5538 5540 5539 5540 5547 5551 5554 5555 5555 5556 5557 5559 5560 5562 5563 5565 5567 5569 5572 5575 5578 5582 5586 5590 5593 5598 5603 5608 5613 5618 5622 5626 5631 5635 5638 5641 5644 5646 5648 5649 5650 5651 5652 5650 5649 5649 5649
5525 5528 5533 5535 5534 5537 5542 5546 5549 5549 5547 5547 5548 5549 5550 5552 5553 5554 5556 5558 5561 5563 5567 5571 5574 5578 5582 5586 5591 5596 5602 5606 5611 5615 5619 5623 5626 5630 5633 5637 5640 5642 5643 5644 5645 5644 5643 5642 5642
5522 5526 5528 5529 5531 5534 5537 5548 5547 5545 5544 5542 5542 5542 5542 5541 5543 5545 5546 5548 5550 5552 5555 5559 5563 5566 5571 5575 5579 5584 5589 5594 5598 5603 5607 5611 5615 5619 5624 5628 5632 5635 5636 5637 5638 5638 5637 5636 5635
5521 5521 5521 5522 5527 5535 5534 5543 5548 5544 5542 5539 5537 5536 5534 5533 5534 5534 5535 5536 5538 5541 5543 5547 5551 5555 5559 5563 5568 5572 5577 5582 5587 5591 5594 5598 5603 5608 5613 5618 5622 5625 5627 5629 5631 5631 5630 5630 5629
5517 5516 5517 5519 5522 5527 5531 5532 5546 5541 5539 5535 5531 5528 5526 5524 5523 5524 5524 5525 5528 5530 5533 5536 5540 5544 5548 5551 5556 5561 5565 5571 5575 5579 5584 5588 5592 5597 5602 5607 5612 5615 5618 5621 5622 5623 5624 5623 5624
5513 5514 5516 5518 5522 5527 5531 5532 5540 5537 5530 5528 5526 5522 5519 5517 5515 5515 5516 5517 5519 5521 5524 5527 5531 5534 5537 5541 5545 5551 5556 5560 5564 5568 5572 5576 5582 5587 5591 5596 5601 5605 5609 5612 5613 5614 5615 5616 5617
5513 5519 5526 5528 5531 5538 5529 5528 5535 5531 5526 5522 5518 5515 5513 5511 5509 5509 5510 5510 5511 5512 5515 5519 5522 5525 5529 5532 5537 5542 5546 5550 5554 5557 5561 5566 5571 5576 5580 5585 5590 5594 5598 5602 5604 5605 5606 5608 5609
5516 5518 5526 5534 5540 5541 5528 5532 5536 5528 5523 5518 5514 5512 5510 5508 5506 5504 5503 5503 5503 5505 5507 5511 5514 5517 5521 5525 5529 5533 5537 5542 5545 5548 5552 5557 5562 5566 5570 5574 5580 5584 5588 5592 5594 5597 5598 5600 5601
5516 5517 5518 5521 5525 5530 5539 5535 5532 5525 5521 5517 5514 5512 5509 5506 5503 5500 5499 5498 5498 5499 5501 5504 5507 5510 5514 5519 5523 5526 5530 5534 5537 5541 5545 5549 5553 5556 5561 5565 5570 5574 5577 5581 5584 5587 5590 5591 5593
5515 5516 5516 5520 5529 5541 5543 5540 5539 5528 5524 5519 5515 5511 5507 5503 5500 5498 5496 5495 5494 5495 5496 5499 5501 5504 5507 5511 5515 5519 5522 5526 5529 5532 5536 5539 5543 5547 5552 5556 5560 5564 5567 5570 5574 5576 5578 5581 5584
5515 5515 5517 5521 5522 5534 5544 5547 5537 5531 5526 5521 5516 5510 5505 5501 5498 5495 5493 5492 5491 5492 5493 5494 5496 5498 5501 5504 5507 5511 5514 5517 5521 5524 5527 5530 5534 5538 5542 5547 5550 5554 5557 5560 5563 5566 5568 5570 5573
5522 5523 5523 5527 5525 5525 5534 5540 5532 5527 5523 5519 5515 5510 5504 5499 5496 5493 5492 5491 5491 5490 5490 5490 5491 5493 5495 5497 5500 5503 5506 5509 5512 5514 5518 5521 5524 5528 5531 5536 5539 5543 5546 5549 5551 5554 5556 5558 5561